Watsonville, CA

2:17 PM PST on February 14, 2016 (GMT -0800)
Watsonville Municipal

Weather History for KWVI - January, 2013

Change the Weather History Date:

Wednesday, January 23, 2013

  Actual Average Record
Temperature  
Mean Temperature 55 °F 51 °F  
Max Temperature 62 °F 62 °F 74 °F (2011)
Min Temperature 47 °F 40 °F 30 °F (2007)
Degree Days  
Heating Degree Days 10    
Month to date heating degree days 391  
Since 1 July heating degree days 1619  
Cooling Degree Days 0    
Month to date cooling degree days 0  
Year to date cooling degree days 0  
Growing Degree Days 4 (Base 50)    
Moisture  
Dew Point 40 °F    
Average Humidity 65    
Maximum Humidity 83    
Minimum Humidity 47    
Precipitation  
Precipitation 0.01 in - 3.40 in (2000)
Month to date precipitation 0.60  
Year to date precipitation 0.60  
Since 1 July precipitation 11.54  
Sea Level Pressure  
Sea Level Pressure 30.04 in    
Wind  
Wind Speed 3 mph (NW)    
Max Wind Speed 8 mph    
Max Gust Speed 15 mph    
Visibility 10 miles    
Events Rain    
T = Trace of Precipitation, MM = Missing Value Source: NWS Daily Summary

Daily Weather History Graph

Daily Weather History Graph

Search for Another Location

Airport or City:

Trip Planner

Search our weather history database for the weather conditions in past years. The results will help you decide how hot, cold, wet, or windy it might be!

Date:

Astronomy

Jan. 23, 2013 Rise Set
Actual Time 7:15 AM PST 5:23 PM PST
Civil Twilight 6:47 AM PST 5:50 PM PST
Nautical Twilight 6:16 AM PST 6:22 PM PST
Astronomical Twilight 5:45 AM PST 6:53 PM PST
Moon 2:39 PM PST (1/23) 4:30 AM PST (1/23)
Length of Visible Light 11h 03m
Length of Day
10h 07m
Waxing Gibbous, 90% of the Moon is Illuminated
Jan 23
Waxing Gibbous
Jan 26
Full
Feb 3
Last Quarter
Feb 9
New
Feb 17
First Quarter

Hourly Weather History & Observations

Time (PST) Temp. Dew Point Humidity Pressure Visibility Wind Dir Wind Speed Gust Speed Precip Events Conditions
12:53 AM 50.0 °F 35.1 °F 57% 30.04 in 10.0 mi NNW 4.6 mph - N/A   Clear
1:53 AM 52.0 °F 35.1 °F 53% 30.03 in 10.0 mi WNW 5.8 mph - N/A   Clear
2:53 AM 50.0 °F 36.0 °F 59% 30.02 in 10.0 mi Calm Calm - N/A   Clear
3:53 AM 48.9 °F 36.0 °F 61% 30.01 in 10.0 mi WNW 3.5 mph - N/A   Clear
4:53 AM 50.0 °F 35.1 °F 57% 29.99 in 10.0 mi NNE 3.5 mph - N/A   Clear
5:53 AM 48.9 °F 37.0 °F 64% 29.99 in 10.0 mi Calm Calm - N/A   Clear
6:53 AM 48.9 °F 37.0 °F 64% 30.01 in 10.0 mi NW 3.5 mph - N/A   Clear
7:53 AM 50.0 °F 36.0 °F 59% 30.04 in 10.0 mi NNW 4.6 mph - N/A   Clear
8:53 AM 52.0 °F 35.1 °F 53% 30.04 in 10.0 mi NW 4.6 mph - N/A   Clear
9:53 AM 55.0 °F 37.9 °F 53% 30.05 in 10.0 mi East 3.5 mph - N/A   Mostly Cloudy
10:53 AM 57.0 °F 37.9 °F 49% 30.05 in 10.0 mi NW 3.5 mph - N/A   Overcast
11:53 AM 57.0 °F 39.9 °F 53% 30.04 in 10.0 mi Calm Calm - 0.00 in Rain Light Rain
12:53 PM 59.0 °F 41.0 °F 51% 30.00 in 10.0 mi NW 4.6 mph - 0.00 in Rain Light Rain
1:53 PM 57.9 °F 41.0 °F 53% 30.01 in 10.0 mi East 3.5 mph - 0.00 in   Overcast
2:53 PM 60.1 °F 42.1 °F 51% 30.00 in 10.0 mi Calm Calm - N/A   Mostly Cloudy
3:53 PM 57.9 °F 44.1 °F 60% 30.01 in 10.0 mi SSW 4.6 mph - N/A   Mostly Cloudy
4:53 PM 57.9 °F 39.9 °F 51% 30.03 in 10.0 mi West 3.5 mph - N/A   Overcast
5:53 PM 54.0 °F 46.0 °F 75% 30.06 in 9.0 mi SW 3.5 mph - 0.00 in Rain Light Rain
6:53 PM 54.0 °F 45.0 °F 72% 30.09 in 10.0 mi NW 5.8 mph - 0.00 in Rain Light Rain
7:53 PM 51.1 °F 46.9 °F 86% 30.07 in 10.0 mi Calm Calm - 0.00 in   Overcast
8:53 PM 52.0 °F 46.9 °F 83% 30.08 in 10.0 mi Calm Calm - 0.00 in Rain Light Rain
9:53 PM 51.1 °F 46.9 °F 86% 30.07 in 10.0 mi Calm Calm - 0.01 in   Overcast
10:53 PM 51.1 °F 46.9 °F 86% 30.07 in 10.0 mi NNW 4.6 mph - N/A   Overcast
11:53 PM 50.0 °F 46.9 °F 89% 30.05 in 10.0 mi Calm Calm - N/A   Overcast